Location: Boca de Tacagua
(10.5333°N, 66.9833°W)
Time: 18:46:39
(UTC+00:00)

XW-2D - Pass Details

Date: 02 April 2023
Orbit: 475 x 489 km, 97.5° (Epoch: 01 June)

Event Time Altitude Azimuth Distance (km) Brightness Sun altitude
Rises 09:37:33 0° 40° (NE) 2,552 ? -12.3°
Reaches altitude 10° 09:40:26 10° 67° (ENE) 1,677 ? -11.6°
Maximum altitude 09:42:22 14° 99° (E) 1,449 ? -11.1°
Drops below altitude 10° 09:44:19 10° 132° (SE) 1,684 ? -10.7°
Sets 09:47:13 0° 158° (SSE) 2,570 ? -10.0°
